Regional Weather Roundup
Issued by NWS Huntsville, AL

Home | Current Version | Previous Version | Text Only | Print | Product List | Glossary On
Versions: 1 2 3 4 5 6 7 8 9 10 11 12 13 14 15 16 17 18 19 20 21 22 23 24 25 26 27
000
ASUS44 KHUN 240610
RWRHUN

WEATHER ROUNDUP FOR THE TENNESSEE VALLEY
NATIONAL WEATHER SERVICE HUNTSVILLE AL
1200 AM CST WED JAN 24 2018

ALZ001>004-240700-
NORTHWEST ALABAMA

CITY           SKY/WX    TMP DP  RH WIND       PRES   REMARKS
COURTLAND HCN    N/A     36 N/A N/A CALM        N/A
RUSSELLVILLE     N/A     28 N/A N/A MISG        N/A
SHOALS AIRPORT FAIR      38  27  64 CALM      30.28F
6HR MIN TEMP:  35; 6HR MAX TEMP:  42;

SHOALS TVA RES   N/A     37 N/A N/A MISG        N/A
$$

ALZ005>007-016-240700-
NORTH CENTRAL ALABAMA

CITY           SKY/WX    TMP DP  RH WIND       PRES   REMARKS
CULLMAN AG STN   N/A     34 N/A N/A N5          N/A  WCI  30
DECATUR AP     FAIR      35  28  75 NW6       30.27F WCI  30
6HR MIN TEMP:  34; 6HR MAX TEMP:  40;

HUNTSVILLE AP  MOCLDY    37  30  75 N6        30.26F WCI  32
6HR MIN TEMP:  35; 6HR MAX TEMP:  41;

MERIDIANVILLE  CLOUDY    37  30  75 NW7       30.26S WCI  32
REDSTONE ARSN  CLOUDY    37  28  71 N7        30.25F WCI  31
VINEMONT AP    FAIR      32  27  80 N3        30.26F
$$

ALZ008>010-240700-
NORTHEAST ALABAMA

CITY           SKY/WX    TMP DP  RH WIND       PRES   REMARKS
ALBERTVILLE    FAIR      34  32  93 NW5       30.23S WCI  30
FORT PAYNE     CLOUDY    37  27  65 MISG      30.22S
SCOTTSBORO AP  CLOUDY    41  28  60 N8G16     30.25S
SCOTTSBORO HCN   N/A     39 N/A N/A MISG        N/A
VALLEY HEAD      N/A     37 N/A N/A MISG        N/A
$$

TNZ076-096-097-240700-
SOUTHEASTERN MIDDLE TENNESSEE

CITY           SKY/WX    TMP DP  RH WIND       PRES   REMARKS
TULLAHOMA      CLOUDY    37  30  75 W8        30.24R WCI  31
WINCHESTER     CLOUDY    37  28  70 NW5       30.25S WCI  34
$$

...SURROUNDING SITES...

CITY           SKY/WX    TMP DP  RH WIND       PRES   REMARKS
ATLANTA        FAIR      39  30  70 NW16G22   30.15F WCI  30
ANNISTON       FAIR      39  28  64 N5        30.24S
BIRMINGHAM     FAIR      37  28  70 N7        30.28S WCI  32
CHATTANOOGA    CLOUDY    41  27  57 NW9       30.24R
CORINTH        FAIR      30  27  86 CALM      30.29R
DALTON         CLOUDY    39  30  70 N10G17    30.23S WCI  32
GADSDEN        FAIR      36  29  75 CALM      30.26S
GOLDEN TRNGL   FAIR      34  29  82 N3        30.30S
HALEYVILLE     FAIR      32  29  88 N3        30.28S
JACKSON TN     FAIR      26  25  96 S3        30.28S
MEMPHIS        FAIR      32  29  88 CALM      30.29R
NASHVILLE      CLOUDY    38  26  62 NW10      30.28R WCI  31
ROME           FAIR      37  29  72 NW5       30.22R WCI  33
SAVANNAH       PTCLDY    28  28 100 CALM      30.27F
SELMER         CLEAR     28  27  93 CALM      30.26F
TUPELO         FAIR      30  27  88 SW3       30.30S
TUSCALOOSA     FAIR      39  31  72 N8        30.29S WCI  33
$$

...GULF COAST WEATHER...

CITY           SKY/WX    TMP DP  RH WIND       PRES   REMARKS
GULFPORT       FAIR      47  30  51 N6        30.25R
PASCAGOULA     FAIR      45  30  55 N6        30.24S
MOBILE         FAIR      48  32  53 N15       30.24S
GULF SHORES    FAIR      46  32  57 N3        30.23S
PENSACOLA      FAIR      50  31  48 N7        30.21F
DESTIN         FAIR      51  36  56 N5        30.20F
PANAMA CITY    FAIR      50  35  56 N8        30.19S
APPALACHICOLA  FAIR      51  38  60 N8        30.17R
$$





USA.gov is the U.S. government's official web portal to all federal, state and local government web resources and services.